Overview Statistics Trail Chart Weather Telemetry Raw packets
 

This is the latest recevied weather packets stored in our database for station/object WX5II-15. If no packets are shown the sender has not sent any weather packets the latest 10 day(s).

<< 1 2 3 4 5 6 7 >>
Time Temp. Humidity Pressure Rain* Wind** Luminosity Snow
1788537320 33.33° C 56% 1004.7 hPa 0 mm - - -
1788536745 33.33° C 57% 1005 hPa 0 mm - - -
1788536118 32.78° C 59% 1004.7 hPa 0 mm - - -
1788535518 32.78° C 59% 1004.7 hPa 0 mm - - -
1788534917 32.78° C 60% 1004.7 hPa 0 mm - - -
1788534317 32.22° C 61% 1004.7 hPa 0 mm - - -
1788534026 32.22° C 63% 1004.7 hPa 0 mm - - -
1788533716 32.22° C 63% 1004.7 hPa 0 mm - - -
1788533116 31.67° C 64% 1004.7 hPa 0 mm - - -
1788532515 31.11° C 66% 1004.7 hPa 0 mm - - -
1788531915 31.67° C 65% 1004.4 hPa 0 mm - - -
1788531314 31.11° C 66% 1004.4 hPa 0 mm - - -
1788530714 31.11° C 68% 1004.4 hPa 0 mm - - -
1788530113 30.56° C 70% 1004.4 hPa 0 mm - - -
1788529511 30° C 72% 1004.4 hPa 0 mm - - -
1788528912 28.89° C 74% 1004 hPa 0 mm - - -
1788528310 28.33° C 76% 1004 hPa 0 mm - - -
1788527825 27.78° C 78% 1004 hPa 0 mm - - -
1788527710 27.78° C 78% 1004 hPa 0 mm - - -
1788527109 27.22° C 80% 1004 hPa 0 mm - - -
1788526509 26.67° C 82% 1004 hPa 0 mm - - -
1788525909 26.11° C 83% 1004 hPa 0 mm - - -
1788525308 25.56° C 83% 1003.7 hPa 0 mm - - -
1788524708 25.56° C 83% 1003.7 hPa 0 mm - - -
1788524106 25.56° C 83% 1003.3 hPa 0 mm - - -

* Rain latest hour (hover to see other rain measurements)
** Current wind speed in m/s (hover to see current wind gust speed)